This is the latest recevied weather packets stored in our database for station/object W1SGB. If no packets are shown the sender has not sent any weather packets the latest 10 day(s).
| Time | Temp. | Humidity | Pressure | Rain* | Wind** | Luminosity | Snow |
|---|---|---|---|---|---|---|---|
| 1777927240 | 21.11° C | 40% | 1008.2 hPa | 0 mm | - | 485 W/m² | - |
| 1777924817 | 21.11° C | 37% | 1008.2 hPa | 0 mm | - | 635 W/m² | - |
| 1777919438 | 20.56° C | 37% | 1008.6 hPa | 0 mm | - | 836 W/m² | - |
| 1777918819 | 20.56° C | 38% | 1008.7 hPa | 0 mm | - | 849 W/m² | - |
| 1777918219 | 20.56° C | 37% | 1008.8 hPa | 0 mm | - | 859 W/m² | - |
| 1777917020 | 20° C | 37% | 1009 hPa | 0 mm | - | 898 W/m² | - |
| 1777906820 | 17.22° C | 40% | 1010.4 hPa | 0 mm | - | 256 W/m² | - |
| 1777901421 | 14.44° C | 47% | 1011.3 hPa | 0 mm | - | 87 W/m² | - |
| 1777900244 | 13.33° C | 50% | 1011.4 hPa | 0 mm | - | 199 W/m² | - |
| 1777899644 | 12.78° C | 51% | 1011.5 hPa | 0 mm | - | 93 W/m² | - |
| 1777893017 | 4.44° C | 73% | 1011.7 hPa | 0 mm | - | 40 W/m² | - |
| 1777891226 | 1.67° C | 88% | 1011.6 hPa | 0 mm | - | 23 W/m² | - |
| 1777890626 | 1.67° C | 88% | 1011.6 hPa | 0 mm | - | 19 W/m² | - |
| 1777884048 | 3.33° C | 82% | 1011.2 hPa | 0 mm | - | 0 W/m² | - |
| 1777881648 | 3.89° C | 83% | 1011.1 hPa | 0 mm | - | 0 W/m² | - |
| 1777878649 | 3.33° C | 85% | 1010.8 hPa | 0 mm | - | 0 W/m² | - |
| 1777876829 | 2.78° C | 85% | 1011 hPa | 0 mm | - | 0 W/m² | - |
| 1777873851 | 2.22° C | 80% | 1011 hPa | 0 mm | - | 0 W/m² | - |
| 1777870820 | 2.22° C | 80% | 1011.1 hPa | 0 mm | - | 0 W/m² | - |
| 1777870217 | 2.22° C | 80% | 1011.3 hPa | 0 mm | - | 0 W/m² | - |
| 1777868418 | 2.22° C | 79% | 1011.1 hPa | 0 mm | - | 0 W/m² | - |
| 1777867218 | 2.22° C | 80% | 1010.9 hPa | 0 mm | - | 0 W/m² | - |
| 1777861818 | 2.78° C | 78% | 1010.5 hPa | 0 mm | - | 0 W/m² | - |
| 1777859437 | 3.89° C | 72% | 1010.3 hPa | 0 mm | - | 0 W/m² | - |
| 1777858818 | 3.89° C | 71% | 1010.2 hPa | 0 mm | - | 0 W/m² | - |
* Rain latest hour (hover to see other rain measurements)
** Current wind speed in m/s (hover to see current wind gust speed)